Volver al catálogo

STARLINK-5407

ActivoComunicacionesVLEO
NORAD 54858·PAYLOAD·🇺🇸 United States

Lanzado Dec 28, 2022 desde Cape Canaveral Space Force Station

Loading…

Próximos Pases (próximas 24 horas)

TLE

ActualizadoSource: CelesTrak SupGP

Época: Sep 15, 2026, 01:58 UTC

1 54858C 22177AQ  26258.08243056  .00058268  00000+0  21106-2 0  2588
2 54858  43.0013 131.8157 0001402 272.6200 239.4943 15.27546730    10

Sigue STARLINK-5407 en tiempo real con AllMySat

Download on the App Store